Weather History for Saranac Lake, NY

Change the Weather History Date:

Tuesday, February 19, 2013

  Actual Average Record
Temperature  
Mean Temperature 22 °F 16 °F  
Max Temperature 43 °F 29 °F 57 °F (1981)
Min Temperature 0 °F 2 °F -18 °F (2005)
Degree Days  
Heating Degree Days 43 50  
Month to date heating degree days 1027 970  
Since 1 July heating degree days 5936 6272  
Moisture  
Dew Point 18 °F    
Average Humidity 67    
Maximum Humidity 92    
Minimum Humidity 42    
Precipitation  
Precipitation 0.10 in 0.06 in 0.50 in (1956)
Month to date precipitation 0.55 1.13  
Year to date precipitation 1.78 3.26  
Sea Level Pressure  
Sea Level Pressure 29.72 in    
Wind  
Wind Speed 6 mph (SW)    
Max Wind Speed 25 mph    
Max Gust Speed 32 mph    
Visibility 6 miles    
Events Snow    
T = Trace of Precipitation, MM = Missing Value Source: NWS Daily Summary

Daily Weather History Graph

Daily Weather History Graph

Search for Another Location

Airport:

Trip Planner

Search our weather history database for the weather conditions in past years. The results will help you decide how hot, cold, wet, or windy it might be!

Date:

Astronomy

Feb. 19, 2013 Rise Set
Actual Time 6:50 AM EST 5:31 PM EST
Civil Twilight 6:20 AM EST 6:01 PM EST
Nautical Twilight 5:46 AM EST 6:35 PM EST
Astronomical Twilight 5:13 AM EST 7:08 PM EST
Moon 11:54 AM EST (2/19) 2:26 AM EST (2/19)
Length of Visible Light 11h 40m
Length of Day
10h 41m
Waxing Gibbous, 67% of the Moon is Illuminated
Feb 19
Waxing Gibbous
Feb 25
Full
Mar 4
Last Quarter
Mar 11
New
Mar 19
First Quarter

Hourly Weather History & Observations

Time (EST) Temp. Windchill Dew Point Humidity Pressure Visibility Wind Dir Wind Speed Gust Speed Precip Events Conditions
12:51 AM 1.0 °F - -5.1 °F 75% 30.09 in 10.0 mi Calm Calm - N/A   Partly Cloudy
1:51 AM 5.0 °F - -2.0 °F 73% 30.08 in 10.0 mi Calm Calm - N/A   Overcast
2:51 AM 9.0 °F - 1.0 °F 70% 30.06 in 10.0 mi Calm Calm - N/A   Overcast
3:51 AM 10.0 °F - -0.0 °F 64% 30.02 in 10.0 mi Calm Calm - N/A   Mostly Cloudy
4:51 AM 6.1 °F - -0.9 °F 73% 30.01 in 10.0 mi Calm Calm - N/A   Partly Cloudy
5:51 AM 5.0 °F - -2.0 °F 73% 29.99 in 10.0 mi Calm Calm - N/A   Partly Cloudy
6:51 AM 6.1 °F - -0.0 °F 76% 29.96 in 10.0 mi Calm Calm - N/A   Mostly Cloudy
7:51 AM 10.9 °F 4.7 °F 1.0 °F 64% 29.93 in 10.0 mi North 3.5 mph - N/A   Clear
8:51 AM 14.0 °F - 1.9 °F 59% 29.91 in 10.0 mi Calm Calm - N/A   Clear
9:51 AM 25.0 °F - 5.0 °F 43% 29.85 in 10.0 mi Calm Calm - N/A   Overcast
10:51 AM 30.0 °F 26.5 °F 10.0 °F 43% 29.80 in 10.0 mi NNE 3.5 mph - N/A   Mostly Cloudy
11:51 AM 42.1 °F 33.9 °F 21.9 °F 45% 29.73 in 10.0 mi SSW 17.3 mph 26.5 mph N/A   Mostly Cloudy
1:51 PM 37.0 °F 26.4 °F 21.9 °F 54% 29.68 in 9.0 mi SSW 20.7 mph 31.1 mph N/A   Overcast
2:51 PM 35.1 °F 27.9 °F 26.1 °F 70% 29.66 in 10.0 mi SSW 9.2 mph - 0.00 in   Overcast
3:11 PM 33.8 °F 27.7 °F 26.6 °F 75% 29.58 in 10.0 mi SSW 6.9 mph - N/A   Overcast
3:51 PM 35.1 °F 27.9 °F 27.0 °F 72% 29.62 in 10.0 mi South 9.2 mph - N/A   Overcast
4:49 PM 33.8 °F 25.8 °F 28.4 °F 81% 29.55 in 1.8 mi SSW 10.4 mph - 0.00 in Snow Light Snow
4:51 PM 34.0 °F 26.0 °F 28.0 °F 79% 29.63 in 1.2 mi SSW 10.4 mph - 0.00 in Snow Light Snow
5:41 PM 30.2 °F 24.3 °F 28.4 °F 93% 29.56 in 1.0 mi SSE 5.8 mph - 0.00 in Snow Light Snow
5:51 PM 30.0 °F 24.1 °F 28.9 °F 96% 29.64 in 1.0 mi SSE 5.8 mph - 0.01 in Snow Light Snow
6:00 PM 30.2 °F 25.4 °F 28.4 °F 93% 29.56 in 0.8 mi South 4.6 mph - 0.00 in Snow Light Snow
6:07 PM 30.2 °F 26.7 °F 28.4 °F 93% 29.55 in 1.0 mi SSE 3.5 mph - 0.01 in Snow Light Snow
6:31 PM 30.2 °F - 28.4 °F 93% 29.54 in 1.5 mi Calm Calm - 0.02 in Snow Light Snow
7:51 PM 30.0 °F 24.1 °F 28.9 °F 96% 29.62 in 1.0 mi WSW 5.8 mph - 0.05 in Snow Light Snow
8:03 PM 30.2 °F 23.4 °F 28.4 °F 93% 29.55 in 1.2 mi SW 6.9 mph - 0.01 in Snow Light Snow
8:26 PM 30.2 °F 25.4 °F 28.4 °F 93% 29.55 in 1.5 mi WSW 4.6 mph - 0.01 in Snow Light Snow
8:51 PM 30.0 °F 23.2 °F 28.0 °F 92% 29.63 in 1.5 mi WSW 6.9 mph - 0.01 in Snow Light Snow
9:14 PM 28.4 °F 21.2 °F 28.4 °F 100% 29.56 in 0.8 mi Variable 6.9 mph - 0.01 in Snow Light Snow
9:21 PM 28.4 °F 24.6 °F 28.4 °F 100% 29.56 in 1.0 mi WSW 3.5 mph - 0.01 in Snow Light Snow
9:35 PM 28.4 °F 19.7 °F 26.6 °F 93% 29.56 in 2.0 mi WSW 9.2 mph 19.6 mph 0.01 in Snow Light Snow
9:51 PM 28.0 °F 17.0 °F 25.0 °F 88% 29.63 in 2.5 mi WSW 13.8 mph 24.2 mph 0.01 in Snow Light Snow
9:54 PM 26.6 °F 16.2 °F 24.8 °F 93% 29.57 in 3.0 mi WSW 11.5 mph 24.2 mph 0.00 in Snow Light Snow
10:51 PM 26.1 °F 17.6 °F 21.0 °F 81% 29.62 in 10.0 mi West 8.1 mph - 0.00 in   Overcast
11:51 PM 24.1 °F 11.5 °F 18.0 °F 77% 29.62 in 10.0 mi West 15.0 mph 25.3 mph 0.00 in   Overcast